Date String (YYYY-MM-DD hh:mm:ss) UTC,Instrument flags,Ambient pressure (hPa),Sample flow (lpm),Bypass flow (lpm),Sample temperature (°C),Ambient temperature (°C),ASC tube jacket temperature (°C),LED temperature (°C),Box temperature (°C),Sample RH (%),Span deviation,Mass concentration (μg/m³),Mass concentration (μg/m³),Mass concentration (μg/m³)
DateTimeUTC,F1_M11,P_M11,Q1_M11,Q2_M11,T1_M11,T2_M11,T3_M11,T4_M11,T5_M11,U1_M11,ZSPAN_M11,X0_M11,X2_M11,X1_M11
2022-09-22 01:00:00,,0832.8,4.99,0.00,30.2,28.6,00.0,39.0,32.0,27.0,-001.8,0012.33,0008.11,0007.46
2022-09-22 01:01:00,,0832.8,5.00,0.00,30.2,28.5,00.0,39.0,32.0,27.0,-002.0,0012.12,0008.00,0007.41
2022-09-22 01:02:00,,0832.9,4.99,0.00,30.2,28.5,00.0,39.0,32.0,26.9,-002.2,0012.33,0007.96,0007.38
2022-09-22 01:03:00,,0832.8,5.00,0.00,30.2,28.5,00.0,39.0,32.0,26.9,-002.1,0012.23,0007.90,0007.34
2022-09-22 01:04:00,,0832.9,4.99,0.00,30.2,28.5,00.0,39.0,31.9,26.9,-002.1,0012.13,0007.86,0007.31
2022-09-22 01:05:00,,0832.8,5.01,0.00,30.1,28.4,00.0,39.0,31.9,26.9,-002.3,0012.12,0007.84,0007.29
2022-09-22 01:06:00,,0832.9,4.99,0.00,30.1,28.4,00.0,38.9,31.9,26.9,-002.4,0011.88,0007.84,0007.28
2022-09-22 01:07:00,,0832.8,5.00,0.00,30.1,28.4,00.0,38.9,31.9,26.9,-002.2,0011.13,0007.84,0007.29
2022-09-22 01:08:00,,0832.8,4.99,0.00,30.1,28.4,00.0,38.9,31.9,27.0,-001.8,0011.12,0007.82,0007.28
2022-09-22 01:09:00,,0832.8,5.01,0.00,30.1,28.4,00.0,38.9,31.9,27.0,-001.6,0011.18,0007.86,0007.31
2022-09-22 01:10:00,,0832.8,4.99,0.00,30.1,28.4,00.0,38.9,31.9,27.0,-001.3,0011.17,0007.91,0007.37
2022-09-22 01:11:00,,0832.9,5.01,0.00,30.1,28.3,00.0,38.9,31.9,27.1,-001.2,0011.18,0007.94,0007.42
2022-09-22 01:12:00,,0832.9,4.99,0.00,30.1,28.3,00.0,38.9,31.9,27.1,-001.0,0011.23,0007.98,0007.46
2022-09-22 01:13:00,,0832.9,5.01,0.00,30.1,28.3,00.0,38.9,31.9,27.1,-000.3,0011.18,0008.01,0007.48
2022-09-22 01:14:00,,0833.0,4.99,0.00,30.1,28.3,00.0,38.9,31.9,27.1,-000.1,0011.73,0008.00,0007.48
2022-09-22 01:15:00,,0833.0,5.01,0.00,30.1,28.3,00.0,38.9,31.9,27.2,0000.4,0011.69,0007.97,0007.46
2022-09-22 01:16:00,,0832.9,4.99,0.00,30.1,28.3,00.0,38.9,31.9,27.2,0000.6,0011.59,0007.92,0007.43
2022-09-22 01:17:00,,0833.0,5.01,0.00,30.1,28.4,00.0,38.9,31.9,27.2,0000.7,0011.57,0007.91,0007.42
2022-09-22 01:18:00,,0832.9,5.00,0.00,30.0,28.3,00.0,38.9,31.8,27.1,0000.5,0011.64,0007.91,0007.41
2022-09-22 01:19:00,,0833.0,5.00,0.00,30.0,28.3,00.0,38.9,31.8,27.1,0000.1,0011.62,0007.88,0007.40
2022-09-22 01:20:00,,0832.9,5.01,0.00,30.0,28.2,00.0,38.9,31.8,27.2,-000.1,0011.56,0007.85,0007.38
2022-09-22 01:21:00,,0832.9,4.99,0.00,30.0,28.2,00.0,38.8,31.8,27.3,-000.6,0011.52,0007.80,0007.35
2022-09-22 01:22:00,,0833.0,5.01,0.00,30.0,28.3,00.0,38.8,31.8,27.2,-000.9,0011.44,0007.72,0007.26
2022-09-22 01:23:00,,0833.1,5.00,0.00,30.0,28.3,00.0,38.8,31.8,27.2,-000.9,0011.44,0007.65,0007.16
2022-09-22 01:24:00,,0833.0,5.01,0.00,30.0,28.3,00.0,38.8,31.8,27.2,-001.7,0011.35,0007.62,0007.13
2022-09-22 01:25:00,,0833.1,4.99,0.00,30.0,28.4,00.0,38.8,31.8,27.3,-002.0,0010.66,0007.60,0007.12
2022-09-22 01:26:00,,0833.1,4.99,0.00,30.0,28.4,00.0,38.8,31.8,27.3,-001.9,0010.69,0007.60,0007.12
2022-09-22 01:27:00,,0833.1,5.01,0.00,30.0,28.4,00.0,38.8,31.8,27.4,-002.0,0010.75,0007.61,0007.09
2022-09-22 01:28:00,,0833.1,4.99,0.00,30.0,28.4,00.0,38.8,31.8,28.3,-002.0,0010.75,0007.60,0007.06
2022-09-22 01:29:00,,0833.2,5.00,0.00,30.0,28.4,00.0,38.8,31.8,27.8,-002.2,0010.70,0007.54,0007.00
2022-09-22 01:30:00,,0833.2,4.99,0.00,30.0,28.4,00.0,38.8,31.8,27.5,-001.9,0010.54,0007.49,0006.97
2022-09-22 01:31:00,,0833.1,5.00,0.00,30.0,28.4,00.0,38.8,31.8,27.4,-001.6,0010.47,0007.43,0006.89
2022-09-22 01:32:00,,0833.2,5.00,0.00,30.0,28.4,00.0,38.8,31.8,27.4,-001.2,0010.41,0007.35,0006.80
2022-09-22 01:33:00,,0833.2,5.00,0.00,30.0,28.4,00.0,38.8,31.8,27.4,-001.1,0010.36,0007.32,0006.78
2022-09-22 01:34:00,,0833.2,5.01,0.00,30.0,28.4,00.0,38.8,31.8,27.3,-001.1,0010.25,0007.29,0006.78
2022-09-22 01:35:00,,0833.1,5.00,0.00,30.0,28.4,00.0,38.8,31.8,27.3,-000.6,0010.05,0007.20,0006.73
2022-09-22 01:36:00,,0833.2,5.00,0.00,30.0,28.3,00.0,38.8,31.8,27.3,-000.6,0009.99,0007.12,0006.64
2022-09-22 01:37:00,,0833.2,5.01,0.00,30.0,28.3,00.0,38.8,31.8,27.3,-000.7,0009.86,0007.04,0006.58
2022-09-22 01:38:00,,0833.2,5.01,0.00,30.0,28.3,00.0,38.8,31.8,27.3,-000.7,0009.86,0006.96,0006.52
2022-09-22 01:39:00,,0833.2,4.99,0.00,30.0,28.4,00.0,38.8,31.8,27.3,-000.9,0010.31,0006.92,0006.49
2022-09-22 01:40:00,,0833.2,5.01,0.00,30.0,28.4,00.0,38.8,31.8,27.3,-000.8,0010.38,0006.86,0006.45
2022-09-22 01:41:00,,0833.1,5.00,0.00,30.0,28.4,00.0,38.8,31.8,27.4,-000.7,0010.37,0006.82,0006.41
2022-09-22 01:42:00,,0833.1,4.99,0.00,30.0,28.5,00.0,38.8,31.9,27.4,-000.8,0010.29,0006.78,0006.38
2022-09-22 01:43:00,,0833.1,5.01,0.00,30.0,28.5,00.0,38.8,31.9,27.4,-000.8,0010.25,0006.73,0006.33
2022-09-22 01:44:00,,0833.1,4.99,0.00,30.0,28.5,00.0,38.8,31.9,27.3,-000.6,0010.22,0006.67,0006.26
2022-09-22 01:45:00,,0833.1,5.00,0.00,30.0,28.5,00.0,38.8,31.9,27.3,-000.7,0010.11,0006.57,0006.19
2022-09-22 01:46:00,,0833.1,5.00,0.00,30.0,28.5,00.0,38.8,31.9,27.2,-001.4,0010.06,0006.49,0006.11
2022-09-22 01:47:00,,0833.1,4.99,0.00,30.0,28.4,00.0,38.8,31.9,27.3,-000.9,0010.05,0006.43,0006.06
2022-09-22 01:48:00,,0833.0,5.00,0.00,30.0,28.5,00.0,38.8,31.8,27.2,-000.2,0010.02,0006.37,0005.99
2022-09-22 01:49:00,,0833.0,5.01,0.00,30.0,28.5,00.0,38.8,31.8,27.2,0000.0,0009.78,0006.29,0005.93
2022-09-22 01:50:00,,0833.0,4.99,0.00,30.0,28.5,00.0,38.8,31.9,27.2,0000.0,0009.09,0006.18,0005.85
2022-09-22 01:51:00,,0833.0,5.00,0.00,30.0,28.5,00.0,38.8,31.9,27.3,0000.0,0008.82,0006.09,0005.78
2022-09-22 01:52:00,,0833.0,5.00,0.00,30.0,28.5,00.0,38.8,31.9,27.3,-000.1,0008.69,0005.99,0005.70
2022-09-22 01:53:00,,0833.0,4.99,0.00,30.0,28.5,00.0,38.8,31.9,27.3,-000.1,0008.55,0005.90,0005.62
2022-09-22 01:54:00,,0833.0,5.01,0.00,30.0,28.5,00.0,38.8,31.9,27.2,0000.0,0008.40,0005.82,0005.57
2022-09-22 01:55:00,,0833.0,4.99,0.00,30.0,28.5,00.0,38.8,31.9,27.2,0000.0,0008.27,0005.77,0005.54
2022-09-22 01:56:00,,0833.0,5.00,0.00,30.0,28.5,00.0,38.8,31.9,27.1,0000.0,0008.27,0005.75,0005.52
2022-09-22 01:57:00,,0833.0,4.99,0.00,30.0,28.5,00.0,38.8,31.9,27.1,0000.0,0008.23,0005.74,0005.50
2022-09-22 01:58:00,,0833.0,5.01,0.00,30.0,28.4,00.0,38.8,31.9,27.1,0000.0,0008.12,0005.72,0005.48
2022-09-22 01:59:00,,0833.0,4.99,0.00,30.0,28.4,00.0,38.8,31.9,27.1,0000.0,0008.06,0005.69,0005.47
